DW8587 Weather Reports


Display with metric or nautical units.
time (UTC)temp
F
wind
direction
speed
MPH
gust
MPH
rain 1hr
in
rain 24hr
in
rain mn
in
humidity
%
barometer
mb
20260506093012 57 180 7.0 17.0 0.00 0.55 0.09 92 1007.2
20260506091510 57 115 8.0 14.0 0.00 0.55 0.09 93 1007.3
20260506090008 56 134 8.0 16.0 0.00 0.55 0.09 93 1007.0
20260506084505 56 113 6.0 15.0 0.00 0.56 0.09 94 1007.0
20260506083002 56 130 3.0 13.0 0.00 0.56 0.09 93 1007.2
20260506081500 56 124 5.0 10.0 0.00 0.56 0.09 93 1007.3
20260506073058 56 131 7.0 13.0 0.00 0.56 0.09 95 1007.5
20260506071554 56 115 7.0 14.0 0.00 0.56 0.09 95 1007.4
20260506061547 55 162 6.0 11.0 0.01 0.70 0.09 95 1007.9
20260506044544 55 174 5.0 9.0 0.00 0.77 0.08 95 1008.2
20260506043035 55 159 3.0 11.0 0.01 0.77 0.08 95 1008.4
20260506041534 55 164 6.0 10.0 0.01 0.77 0.08 95 1008.5
20260506040050 55 113 3.0 11.0 0.02 0.77 0.08 95 1008.7
20260506034529 55 146 4.0 9.0 0.06 0.77 0.08 95 1008.6
20260506033028 55 161 3.0 10.0 0.07 0.76 0.07 95 1008.7
20260506031540 55 180 3.0 6.0 0.07 0.76 0.07 96 1008.7
20260506030023 55 229 3.0 7.0 0.06 0.76 0.06 96 1008.9
20260506024522 55 311 0.0 2.0 0.02 0.72 0.02 96 1009.3
20260506023019 55 339 0.0 2.0 0.00 0.69 0.00 96 1009.5
20260506021518 55 339 0.0 1.0 0.00 0.69 0.00 96 1009.7
20260506020017 55 339 0.0 0.0 0.00 0.69 0.00 95 1009.8
20260506014516 55 339 0.0 2.0 0.00 0.69 0.00 95 1009.8
20260506013015 55 339 0.0 3.0 0.00 0.69 0.00 95 1009.8
20260506011513 55 123 0.0 2.0 0.00 0.69 0.00 95 1009.9
20260506010013 55 124 0.0 2.0 0.00 0.69 0.00 95 1010.1
20260506004520 55 123 0.0 1.0 0.00 0.69 0.00 95 1010.3
20260506003012 55 123 0.0 2.0 0.00 0.69 0.00 95 1010.5
20260506001507 55 141 1.0 4.0 0.00 0.69 0.00 95 1010.5
20260506000005 55 107 1.0 3.0 0.00 0.69 0.00 95 1010.5
20260505234503 55 128 0.0 2.0 0.00 0.69 0.00 95 1010.8
20260505233002 55 128 0.0 2.0 0.00 0.69 0.00 95 1011.1
20260505231501 55 128 0.0 2.0 0.00 0.69 0.00 95 1011.0
20260505230059 55 128 0.0 2.0 0.00 0.69 0.00 95 1011.2
20260505224559 55 115 1.0 4.0 0.00 0.69 0.00 95 1011.3
20260505223058 55 138 1.0 5.0 0.00 0.69 0.00 95 1011.3
20260505221557 55 143 1.0 3.0 0.00 0.69 0.00 95 1011.4
20260505220056 55 120 1.0 3.0 0.04 0.69 0.00 95 1011.5
20260505214558 55 238 0.0 2.0 0.05 0.69 0.69 95 1011.6
20260505213053 55 242 0.0 2.0 0.07 0.69 0.69 95 1011.8
20260505211606 55 242 0.0 3.0 0.09 0.69 0.69 95 1011.9
20260505210051 55 107 0.0 3.0 0.04 0.65 0.65 95 1012.1
20260505204552 55 128 0.0 4.0 0.04 0.65 0.65 95 1012.1
20260505203052 55 157 2.0 7.0 0.02 0.62 0.62 95 1012.2
20260505201556 55 148 0.0 4.0 0.00 0.61 0.61 95 1012.2
20260505200050 55 148 2.0 7.0 0.01 0.61 0.61 95 1012.1
20260505194606 55 167 2.0 7.0 0.02 0.61 0.61 95 1012.0
20260505193048 55 172 0.0 3.0 0.06 0.61 0.61 95 1011.9
20260505191547 55 45 0.0 1.0 0.06 0.61 0.61 95 1011.9
20260505190049 55 44 2.0 4.0 0.06 0.60 0.60 95 1011.8
20260505184546 55 19 0.0 1.0 0.07 0.57 0.57 95 1011.6
20260505183045 55 19 0.0 2.0 0.06 0.55 0.55 95 1011.5
20260505181550 54 20 0.0 1.0 0.06 0.55 0.55 95 1011.4
20260505180044 54 20 0.0 5.0 0.05 0.54 0.54 95 1011.5
20260505174552 54 343 2.0 5.0 0.05 0.50 0.50 94 1011.5
20260505173043 54 342 2.0 5.0 0.05 0.49 0.49 94 1011.6
20260505171543 54 296 1.0 4.0 0.09 0.49 0.49 94 1011.7
20260505170042 54 333 2.0 4.0 0.10 0.49 0.49 94 1011.6
20260505164552 54 329 2.0 4.0 0.07 0.46 0.46 94 1011.6
20260505163051 54 342 2.0 4.0 0.06 0.44 0.44 94 1011.7
20260505161641 54 339 2.0 5.0 0.02 0.40 0.40 94 1011.7
20260505153040 55 350 1.0 4.0 0.01 0.38 0.38 94 1011.9
20260505151540 55 39 2.0 4.0 0.01 0.38 0.38 93 1011.9
20260505124539 55 55 3.0 5.0 0.01 0.37 0.37 92 1012.5
20260505123038 55 74 1.0 5.0 0.01 0.36 0.36 92 1012.5
20260505121533 55 42 1.0 4.0 0.02 0.36 0.36 93 1012.4
20260505120033 55 5 3.0 6.0 0.03 0.36 0.36 92 1012.5
20260505114531 55 5 2.0 5.0 0.05 0.36 0.36 92 1012.5
20260505113031 55 329 1.0 4.0 0.05 0.35 0.35 92 1012.6
20260505111536 55 44 1.0 3.0 0.05 0.35 0.35 92 1012.6
20260505101527 55 31 4.0 9.0 0.06 0.30 0.30 91 1012.6
20260505100030 56 11 3.0 6.0 0.05 0.28 0.28 90 1012.6
20260505094525 56 342 3.0 6.0 0.04 0.27 0.27 90 1012.7
20260505093025 55 30 3.0 9.0 0.04 0.26 0.26 89 1012.7